GFSNE_con_lsi_057.txt.gz
Lid_Strength_Index
1 1 2 1 1 1 2 2 4 6 5 3 4 2 1 2 2 3 2 2 2 3 3 3 3 3 2 2 1 0 -1 -1 -1 -1 -1 -1 -1 -2
1 2 2 1 1 1 2 2 2 3 5 4 4 4 3 3 2 3 3 3 3 3 3 4 3 3 3 2 2 1 -1 -0 -0 -0 -1 -1 -1 -2
2 2 1 1 2 1 2 2 3 4 6 5 5 5 5 5 4 4 4 4 4 3 4 4 3 3 3 3 2 0 0 0 1 -0 -1 -0 -1 -1
2 3 3 1 1 1 2 3 3 4 5 6 6 6 6 5 5 5 4 4 5 4 4 3 4 3 3 3 3 3 2 2 2 1 1 0 0 0
3 4 4 3 2 2 3 3 4 4 4 6 7 6 6 5 6 5 5 5 4 3 3 3 3 2 2 3 3 4 5 4 4 3 2 2 2 2
2 4 4 4 3 2 3 3 4 5 5 6 6 6 5 5 5 6 6 5 5 3 3 3 2 2 2 3 3 4 5 5 5 5 4 4 4 2
2 2 2 1 2 1 2 4 4 4 5 5 6 5 6 5 5 5 4 5 4 4 5 4 5 5 4 3 3 3 4 4 4 4 5 5 5 4
2 2 2 2 2 3 2 1 3 5 6 6 6 6 5 5 4 4 3 4 4 2 4 4 3 4 5 5 2 3 3 4 4 4 4 4 5 5
3 3 4 3 3 4 4 4 3 1 1 3 4 4 4 3 3 2 3 3 3 3 3 3 3 4 5 4 2 3 3 4 4 4 4 4 5 5
4 3 5 7 6 6 8 9 8 6 4 2 3 4 4 3 2 3 3 3 3 2 2 5 3 4 4 4 2 3 3 4 4 4 4 5 5 6
7 6 5 7 5 4 7 9 9 9 5 4 4 4 4 4 3 3 4 3 4 4 2 3 3 3 4 5 4 2 3 4 4 4 4 5 5 6
7 8 6 7 6 5 6 7 8 7 7 7 7 6 5 3 2 5 6 7 6 4 4 3 2 3 5 5 5 4 4 4 4 4 4 4 5 7
7 9 9 7 7 6 4 3 5 5 4 5 5 5 4 5 6 6 6 5 6 6 4 4 5 5 5 5 5 5 5 5 4 4 4 4 4 5
7 8 10 8 9 8 7 8 7 6 7 6 5 6 5 5 5 6 5 5 4 5 5 5 5 6 7 7 5 4 5 4 5 5 4 4 4 3
8 8 8 9 9 8 7 6 6 7 6 7 8 8 8 8 6 5 4 4 4 3 3 4 5 5 6 6 6 4 4 3 4 4 4 4 4 5
7 8 7 7 7 6 7 7 7 8 7 8 8 8 7 6 6 7 7 6 5 5 3 3 3 4 5 5 5 6 5 4 3 3 3 2 3 4
9 8 6 7 8 8 8 7 8 8 7 7 7 7 7 6 7 7 7 7 8 6 4 3 2 2 3 3 4 5 3 4 3 2 3 3 3 1
9 7 8 7 7 7 6 6 7 5 6 6 7 7 7 8 8 7 6 8 7 7 7 4 3 3 4 4 0 4 4 5 5 3 3 3 4 3
9 8 7 7 6 5 5 6 8 6 6 5 6 6 6 6 8 8 6 7 6 7 6 6 6 6 7 7 5 1 5 5 5 6 5 5 5 4
9 8 7 5 4 5 5 6 6 6 6 5 6 6 6 7 7 7 7 6 6 7 6 6 6 4 5 6 6 5 3 5 5 6 5 5 4 1
8 8 7 6 4 4 5 5 5 5 5 5 6 6 6 5 7 6 6 5 5 6 6 6 4 2 3 4 5 5 4 3 3 4 5 5 6 5
6 6 6 6 3 4 4 5 5 6 6 6 6 6 5 6 6 6 6 6 5 6 6 5 3 3 4 5 6 5 5 3 2 1 1 2 5 7
5 4 5 4 4 3 4 4 5 5 5 5 6 4 3 5 5 5 5 4 5 5 5 6 6 5 5 4 4 5 5 5 5 4 5 2 2 2

GFSNE_con_lsi_063.txt.gz
Lid_Strength_Index
3 3 3 2 2 2 3 2 4 6 5 4 4 2 2 2 2 2 2 2 2 2 2 2 2 2 1 1 1 1 1 0 -0 -0 -1 -2 -2 -2
3 3 3 3 3 2 3 3 4 4 5 4 5 4 3 3 2 2 2 2 2 2 3 3 3 3 3 2 2 2 1 1 -1 -1 -1 -1 -1 -2
3 3 3 3 3 3 3 3 3 4 6 6 5 5 5 5 5 4 4 4 4 3 3 3 3 3 4 3 2 1 0 0 -0 -1 -1 -1 -1 -0
4 3 3 3 4 4 4 5 5 4 5 6 6 6 6 5 5 5 4 4 4 3 3 3 4 3 4 3 2 2 2 1 1 1 1 0 1 1
4 4 3 4 5 5 6 6 5 5 5 6 7 6 6 5 6 5 5 5 4 3 3 3 3 3 2 3 3 4 5 4 4 3 3 2 2 2
5 4 3 3 4 5 6 5 4 5 5 6 6 6 6 5 5 6 6 5 5 4 3 3 2 2 2 3 3 4 4 5 5 5 4 4 4 3
4 4 3 1 1 3 5 6 4 5 5 5 6 6 6 6 5 4 6 5 6 5 7 6 6 6 5 3 3 3 4 4 5 5 5 5 5 4
3 4 4 3 1 2 2 3 5 5 5 5 5 6 5 5 4 4 5 4 6 5 6 7 5 6 6 7 3 4 4 4 4 5 5 5 5 5
4 4 4 5 4 3 2 2 3 3 3 5 6 6 6 4 4 4 3 5 5 5 5 6 5 6 6 5 3 4 4 4 4 4 5 5 5 6
6 6 7 7 6 5 5 5 5 5 4 4 4 4 4 4 4 2 2 3 3 4 5 6 6 5 5 6 2 3 4 4 4 4 5 5 6 6
6 7 8 9 7 8 9 9 9 9 5 4 3 3 3 3 3 3 4 5 6 6 4 4 4 4 5 6 6 2 3 4 4 4 4 5 6 6
8 8 6 8 7 8 11 12 11 11 9 8 7 6 7 5 3 4 5 7 7 7 6 4 4 4 4 6 6 6 5 4 5 5 4 5 5 7
8 8 8 7 8 9 8 8 9 8 7 8 7 7 7 8 8 8 7 6 7 7 6 5 6 6 6 7 7 7 6 6 6 6 5 5 5 5
8 9 8 9 9 8 8 7 7 5 6 6 7 7 7 7 8 8 8 8 7 7 6 6 7 8 8 8 7 7 7 7 6 6 6 5 5 4
8 9 9 10 10 9 7 7 7 7 8 8 6 7 7 7 8 8 7 7 7 6 5 7 7 8 8 9 9 8 7 6 6 6 6 6 5 5
7 9 9 10 8 8 9 8 8 8 8 8 8 8 9 9 8 8 10 8 7 7 6 5 6 7 8 8 9 9 8 7 6 5 6 5 4 5
10 11 12 11 10 10 11 10 9 8 9 9 9 9 9 9 9 9 10 9 10 8 7 6 6 6 7 7 8 8 7 6 6 5 5 5 4 3
10 11 12 11 10 10 10 10 8 8 9 8 9 9 9 9 9 10 9 10 10 9 8 7 7 6 7 7 4 6 7 6 7 6 5 4 4 3
9 10 10 10 10 9 9 9 8 8 8 8 9 9 9 9 9 10 9 9 9 9 9 9 8 7 8 9 7 3 6 7 7 8 6 5 5 4
9 9 10 10 10 9 8 8 8 8 8 8 9 9 8 8 9 9 8 8 9 9 10 10 9 8 8 8 8 6 4 5 6 7 7 7 6 3
9 9 9 9 8 8 7 7 6 7 8 8 8 8 8 9 9 8 8 8 8 9 9 10 8 6 8 7 8 7 6 3 4 6 6 7 7 7
6 7 7 8 8 7 6 6 6 6 6 7 7 7 8 8 8 8 8 8 9 9 9 9 8 8 8 7 7 7 7 6 4 2 2 3 6 7
6 6 6 8 8 8 7 6 6 6 6 6 7 7 7 8 7 7 7 6 8 8 7 7 8 9 8 7 7 8 7 8 8 7 6 3 2 2

GFSNE_con_lsi_069.txt.gz
Lid_Strength_Index
0 0 1 0 0 0 0 1 3 6 5 4 4 3 2 2 2 1 1 1 1 2 2 2 1 1 0 0 1 1 1 0 0 0 0 -0 0 -0
-0 0 0 0 0 0 0 0 1 3 5 4 5 3 2 2 2 2 2 2 2 2 2 2 2 2 1 1 1 1 1 1 1 -0 -1 -1 -1 -1
-0 0 1 0 1 0 0 1 1 3 5 5 5 4 4 3 3 3 3 3 2 3 2 3 3 2 2 2 1 2 2 2 -0 -1 -1 -1 -0 0
1 1 1 0 1 0 1 1 2 3 4 6 5 5 5 4 4 3 3 3 2 2 3 3 4 4 4 3 3 3 1 1 1 1 1 1 1 1
0 1 1 1 1 1 1 1 2 3 4 5 6 5 5 4 4 3 3 2 2 2 3 3 3 3 3 4 3 4 4 4 3 3 2 2 2 2
0 -0 0 0 1 1 1 1 1 2 2 4 5 5 5 5 5 6 6 4 4 3 2 2 2 2 3 3 3 4 5 5 5 4 4 4 4 3
0 -0 -0 0 2 1 1 1 1 2 3 4 5 6 6 6 6 6 4 4 3 3 2 2 1 2 2 2 3 3 4 5 5 5 5 5 5 4
1 0 -0 -0 1 2 2 2 1 2 3 4 4 5 5 5 4 5 4 4 4 1 2 3 2 2 2 2 3 4 4 5 5 5 5 5 5 5
-0 -0 0 -0 -0 -0 2 2 2 3 2 1 3 3 4 3 3 3 3 2 2 1 0 2 1 2 1 2 3 4 4 4 5 5 5 5 5 6
-1 0 -0 0 -0 -0 0 0 0 0 0 1 0 1 1 1 1 1 1 1 1 0 -1 2 0 1 1 1 3 4 4 4 4 5 5 5 6 6
1 1 1 -0 4 4 0 1 1 0 4 4 4 3 3 3 1 1 1 2 3 2 -0 1 1 0 0 1 1 3 4 5 5 5 5 5 6 6
1 2 6 3 7 7 1 1 1 1 1 1 1 2 2 2 2 -1 0 2 2 2 -0 1 1 1 2 1 -0 1 2 4 5 5 4 5 6 3
2 2 3 7 9 9 7 1 1 1 2 1 2 2 0 -0 -0 -1 -1 0 1 2 -0 -0 1 1 1 1 0 -0 -0 1 2 3 6 6 6 5
1 2 3 9 10 11 9 7 8 5 2 2 2 3 3 3 2 1 0 -1 -1 -1 -1 -2 1 1 1 2 2 0 -0 -1 -1 -1 -0 3 6 5
1 4 7 10 11 10 9 9 8 4 3 3 4 4 3 3 2 1 1 0 1 0 -0 -2 -0 -0 1 1 2 1 1 -0 -1 -1 -1 -1 -1 -0
4 5 6 8 8 5 5 6 5 4 4 4 3 3 2 2 3 2 3 2 3 3 1 0 0 1 3 3 2 2 1 2 0 -0 -1 -1 -1 -1
4 6 6 5 6 5 5 3 3 3 3 3 3 3 3 2 2 1 2 3 4 4 3 2 1 0 1 1 3 2 2 2 1 1 0 2 1 -0
6 6 6 6 5 7 6 6 3 3 2 2 2 2 3 2 2 2 2 3 4 4 4 3 2 2 2 1 0 2 2 2 2 0 0 2 2 1
5 5 5 5 5 6 6 6 6 5 2 4 3 3 3 3 3 3 3 3 4 4 4 2 2 3 4 5 2 2 2 2 2 1 1 1 2 2
5 4 5 5 5 6 7 7 7 7 6 5 5 3 3 3 3 4 3 3 3 3 3 3 3 3 4 4 3 2 5 1 2 2 2 1 0 2
6 5 4 4 5 6 7 6 7 7 6 6 4 3 3 4 5 5 4 5 4 3 4 4 3 3 1 1 3 3 2 5 2 1 1 2 2 1
4 5 5 5 6 6 6 7 6 7 7 5 5 4 4 4 4 4 3 4 4 4 3 3 2 2 2 3 4 3 3 2 4 4 4 4 3 4
2 3 3 4 5 5 5 6 6 6 6 6 5 5 3 3 3 3 2 2 3 3 3 3 3 2 3 3 4 4 3 2 2 2 2 4 4 4

GFSNE_con_lsi_075.txt.gz
Lid_Strength_Index
-0 0 1 0 0 0 0 1 3 6 5 4 4 3 2 1 1 1 1 1 1 1 1 1 1 1 0 0 0 0 0 -0 -0 0 0 0 1 -0
0 0 0 0 0 0 0 1 1 2 5 4 4 3 2 2 1 1 1 1 1 1 1 2 1 1 1 1 1 1 0 0 0 1 1 1 1 -0
0 0 1 -0 0 0 0 0 1 1 4 5 5 4 3 3 2 2 2 2 2 2 2 2 2 2 2 2 1 1 0 0 0 0 0 -1 -0 1
1 1 1 0 0 0 0 1 1 1 2 5 5 5 5 3 3 2 2 1 2 2 3 2 2 3 3 3 3 3 2 1 0 -0 -0 0 0 1
0 1 1 0 1 0 1 1 1 1 2 5 5 5 5 4 4 3 2 1 1 2 3 3 3 3 4 4 4 3 3 3 2 2 1 1 1 1
0 0 0 1 1 1 1 1 1 1 2 4 5 5 5 5 4 4 4 2 2 2 1 1 2 3 3 2 3 3 4 4 4 4 3 3 3 3
0 -0 -0 0 2 2 0 1 1 2 2 3 4 5 6 6 5 4 4 4 2 2 2 2 2 1 2 2 2 3 3 4 4 4 4 4 4 4
0 -0 -0 1 0 1 3 3 2 1 2 2 4 6 5 5 4 5 5 5 4 -0 1 2 1 2 2 2 2 3 4 4 4 4 4 5 5 5
-0 -0 0 0 -0 -0 1 2 2 3 2 1 2 3 4 3 3 5 4 2 2 1 0 2 0 0 1 2 3 3 4 4 4 4 5 5 5 5
-0 -0 -0 -0 0 0 0 0 0 0 -0 0 0 1 0 1 2 2 2 1 0 -0 -0 2 0 1 0 1 3 4 4 4 4 5 5 5 6 6
0 -0 -0 -0 3 2 0 1 1 1 3 3 3 2 2 3 2 3 3 3 3 2 -0 1 1 0 0 2 3 3 4 5 5 5 5 5 6 6
-0 -0 2 2 4 4 0 0 1 1 -0 0 -0 1 1 1 2 1 2 3 3 3 0 2 1 2 3 1 2 3 4 5 5 5 5 5 6 5
1 1 0 5 6 7 7 0 1 0 0 0 1 0 0 -0 0 0 -1 1 2 2 -1 0 1 1 2 2 1 2 2 3 4 5 6 6 6 6
0 0 5 8 9 9 7 6 6 4 0 1 1 1 1 1 0 -0 -1 -1 -2 -0 -2 -1 1 1 2 2 2 0 0 1 2 2 3 4 6 6
0 4 8 10 10 9 9 8 8 4 2 1 1 1 0 -0 -1 -0 -1 -1 -2 -2 -1 -2 -0 -0 1 2 2 2 2 1 0 1 2 3 3 3
3 1 2 4 5 4 6 8 5 4 3 2 3 1 1 2 2 1 1 1 2 3 -1 -2 -2 -1 1 1 1 2 1 2 0 1 1 0 -0 1
2 0 2 2 3 5 4 3 3 3 4 3 4 3 2 2 3 2 2 3 3 3 4 1 -2 -2 -0 0 2 1 1 1 0 0 0 1 0 -0
4 3 3 4 4 3 3 3 2 2 2 3 2 2 2 2 2 1 2 2 3 3 3 3 2 2 2 0 -0 2 2 2 0 -0 0 1 1 -0
2 2 3 3 3 3 3 3 3 2 2 1 2 3 3 3 3 3 3 3 2 3 3 3 3 3 5 6 2 3 3 1 1 1 1 1 1 1
1 2 2 2 2 2 2 2 3 3 3 4 4 3 4 4 4 4 3 5 3 2 2 2 3 3 3 4 3 2 5 2 2 1 1 0 0 0
1 1 1 2 2 2 3 3 4 4 4 4 5 5 5 5 5 5 4 7 6 4 4 3 3 3 2 2 3 2 1 5 2 1 0 1 2 2
1 1 1 1 1 2 3 4 4 5 4 5 5 5 4 5 6 6 5 5 5 5 4 4 2 1 2 4 4 2 2 1 4 4 4 3 1 3
1 -0 0 0 0 0 0 1 2 2 2 3 4 4 3 4 3 3 4 4 5 5 4 5 4 3 3 2 3 3 3 2 2 3 2 4 4 5